Weather History for Audubon, IA

Change the Weather History Date:

Saturday, December 14, 2013

  Actual Average Record
Temperature  
Mean Temperature 16 °F -  
Max Temperature 21 °F 34 °F 55 °F (2006)
Min Temperature 12 °F 15 °F -10 °F (1963)
Degree Days  
Heating Degree Days 48    
Moisture  
Dew Point 11 °F    
Average Humidity 74    
Maximum Humidity 80    
Minimum Humidity 63    
Precipitation  
Precipitation 0.00 in - - ()
Sea Level Pressure  
Sea Level Pressure 30.13 in    
Wind  
Wind Speed 11 mph (NNW)    
Max Wind Speed 18 mph    
Max Gust Speed 22 mph    
Visibility 10 miles    
Events Snow    
Averages and records for this station are not official NWS values.
T = Trace of Precipitation, MM = Missing Value Source: NWS Daily Summary

Daily Weather History Graph

Daily Weather History Graph

Search for Another Location

Airport:

Trip Planner

Search our weather history database for the weather conditions in past years. The results will help you decide how hot, cold, wet, or windy it might be!

Date:

Astronomy

Dec. 14, 2013 Rise Set
Actual Time 7:39 AM CST 4:49 PM CST
Civil Twilight 7:07 AM CST 5:21 PM CST
Nautical Twilight 6:32 AM CST 5:56 PM CST
Astronomical Twilight 5:58 AM CST 6:30 PM CST
Moon 3:13 PM CST (12/14) 4:59 AM CST (12/14)
Length of Visible Light 10h 13m
Length of Day
9h 10m
Waxing Gibbous, 94% of the Moon is Illuminated
Dec 14
Waxing Gibbous
Dec 17
Full
Dec 25
Last Quarter
Jan 1
New
Jan 7
First Quarter

Hourly Weather History & Observations

Time (CST) Temp. Windchill Dew Point Humidity Pressure Visibility Wind Dir Wind Speed Gust Speed Precip Events Conditions
12:15 AM 21.2 °F 7.8 °F 15.8 °F 80% 30.07 in 10.0 mi North 15.0 mph - N/A   Clear
12:35 AM 21.2 °F 8.3 °F 15.8 °F 80% 30.06 in 10.0 mi NNE 13.8 mph - N/A   Clear
12:55 AM 21.2 °F 8.3 °F 14.0 °F 74% 30.06 in 10.0 mi North 13.8 mph 21.9 mph N/A   Clear
1:15 AM 21.2 °F 6.4 °F 14.0 °F 74% 30.06 in 10.0 mi North 18.4 mph - N/A   Clear
1:35 AM 21.2 °F 7.8 °F 14.0 °F 74% 30.06 in 10.0 mi NNE 15.0 mph 21.9 mph N/A   Clear
1:55 AM 19.4 °F 5.5 °F 14.0 °F 80% 30.07 in 10.0 mi North 15.0 mph 20.7 mph N/A   Clear
2:15 AM 19.4 °F 6.0 °F 14.0 °F 80% 30.08 in 10.0 mi North 13.8 mph - N/A   Clear
2:35 AM 19.4 °F 7.2 °F 12.2 °F 74% 30.08 in 10.0 mi North 11.5 mph 18.4 mph N/A   Clear
2:55 AM 19.4 °F 6.6 °F 12.2 °F 74% 30.09 in 10.0 mi North 12.7 mph - N/A   Clear
3:15 AM 19.4 °F 7.9 °F 12.2 °F 74% 30.09 in 10.0 mi North 10.4 mph - N/A   Clear
3:35 AM 19.4 °F 5.0 °F 12.2 °F 74% 30.09 in 10.0 mi North 16.1 mph - N/A   Clear
3:55 AM 19.4 °F 7.2 °F 12.2 °F 74% 30.08 in 10.0 mi North 11.5 mph - N/A   Clear
4:15 AM 19.4 °F 6.0 °F 12.2 °F 74% 30.08 in 10.0 mi North 13.8 mph 18.4 mph N/A   Clear
4:35 AM 17.6 °F 3.7 °F 12.2 °F 79% 30.09 in 10.0 mi North 13.8 mph - N/A   Clear
4:55 AM 17.6 °F 4.3 °F 12.2 °F 79% 30.09 in 10.0 mi North 12.7 mph 19.6 mph N/A   Clear
5:15 AM 17.6 °F 5.0 °F 10.4 °F 73% 30.10 in 10.0 mi NNW 11.5 mph - N/A   Clear
5:35 AM 17.6 °F 5.7 °F 10.4 °F 73% 30.11 in 10.0 mi North 10.4 mph 21.9 mph N/A   Clear
5:55 AM 17.6 °F 3.7 °F 10.4 °F 73% 30.11 in 10.0 mi North 13.8 mph - N/A   Clear
6:15 AM 17.6 °F 3.2 °F 10.4 °F 73% 30.12 in 10.0 mi North 15.0 mph - N/A   Clear
6:35 AM 17.6 °F 5.0 °F 10.4 °F 73% 30.13 in 7.0 mi North 11.5 mph 17.3 mph N/A   Clear
6:55 AM 15.8 °F 4.2 °F 10.4 °F 79% 30.13 in 7.0 mi North 9.2 mph - N/A   Clear
7:15 AM 15.8 °F 3.4 °F 10.4 °F 79% 30.13 in 10.0 mi North 10.4 mph - N/A   Clear
7:35 AM 15.8 °F 4.2 °F 10.4 °F 79% 30.14 in 10.0 mi North 9.2 mph - N/A   Clear
7:55 AM 15.8 °F 4.2 °F 10.4 °F 79% 30.15 in 7.0 mi North 9.2 mph - N/A   Clear
8:15 AM 15.8 °F 3.4 °F 10.4 °F 79% 30.14 in 5.0 mi North 10.4 mph - N/A Snow Light Snow
8:35 AM 15.8 °F 4.2 °F 8.6 °F 73% 30.16 in 10.0 mi NNW 9.2 mph - N/A   Clear
8:55 AM 15.8 °F 2.7 °F 8.6 °F 73% 30.17 in 10.0 mi NNW 11.5 mph - N/A   Clear
9:15 AM 15.8 °F 4.2 °F 10.4 °F 79% 30.17 in 10.0 mi North 9.2 mph - N/A   Clear
9:35 AM 17.6 °F 5.7 °F 10.4 °F 73% 30.17 in 10.0 mi North 10.4 mph - N/A   Clear
9:55 AM 17.6 °F 5.7 °F 10.4 °F 73% 30.17 in 10.0 mi NNW 10.4 mph - N/A   Clear
10:15 AM 17.6 °F 7.3 °F 10.4 °F 73% 30.17 in 10.0 mi NW 8.1 mph - N/A   Clear
10:35 AM 19.4 °F 7.2 °F 10.4 °F 68% 30.16 in 10.0 mi NNW 11.5 mph - N/A   Scattered Clouds
10:55 AM 19.4 °F 7.9 °F 10.4 °F 68% 30.16 in 10.0 mi NNW 10.4 mph - N/A   Clear
11:15 AM 19.4 °F 7.9 °F 12.2 °F 74% 30.16 in 10.0 mi NNW 10.4 mph - N/A   Clear
11:35 AM 21.2 °F 9.5 °F 12.2 °F 68% 30.15 in 10.0 mi NW 11.5 mph - N/A   Clear
11:55 AM 21.2 °F 9.5 °F 12.2 °F 68% 30.14 in 10.0 mi NNW 11.5 mph - N/A   Clear
12:15 PM 21.2 °F 9.5 °F 12.2 °F 68% 30.14 in 10.0 mi NW 11.5 mph 17.3 mph N/A   Clear
12:35 PM 21.2 °F 9.5 °F 10.4 °F 63% 30.13 in 10.0 mi NNW 11.5 mph 17.3 mph N/A   Clear
12:55 PM 21.2 °F 8.9 °F 12.2 °F 68% 30.13 in 10.0 mi NW 12.7 mph 17.3 mph N/A   Clear
1:15 PM 19.4 °F 7.2 °F 10.4 °F 68% 30.13 in 10.0 mi NW 11.5 mph 16.1 mph N/A   Clear
1:35 PM 19.4 °F 6.6 °F 10.4 °F 68% 30.13 in 10.0 mi NW 12.7 mph 17.3 mph N/A   Clear
1:55 PM 19.4 °F 7.2 °F 10.4 °F 68% 30.13 in 10.0 mi NNW 11.5 mph - N/A   Clear
2:15 PM 19.4 °F 7.9 °F 10.4 °F 68% 30.13 in 10.0 mi NNW 10.4 mph - N/A   Scattered Clouds
2:35 PM 19.4 °F 8.6 °F 10.4 °F 68% 30.13 in 10.0 mi NW 9.2 mph - N/A   Clear
2:55 PM 21.2 °F 10.9 °F 12.2 °F 68% 30.13 in 10.0 mi NW 9.2 mph - N/A   Clear
3:15 PM 21.2 °F 12.6 °F 10.4 °F 63% 30.13 in 10.0 mi WNW 6.9 mph - N/A   Clear
3:35 PM 19.4 °F 9.5 °F 10.4 °F 68% 30.14 in 10.0 mi NW 8.1 mph - N/A   Clear
3:55 PM 19.4 °F 11.5 °F 10.4 °F 68% 30.14 in 10.0 mi NW 5.8 mph - N/A   Clear
4:15 PM 19.4 °F 12.8 °F 10.4 °F 68% 30.14 in 10.0 mi NW 4.6 mph - N/A   Clear
4:35 PM 17.6 °F 8.2 °F 10.4 °F 73% 30.15 in 10.0 mi WNW 6.9 mph - N/A   Scattered Clouds
4:55 PM 17.6 °F 8.2 °F 8.6 °F 68% 30.14 in 10.0 mi NW 6.9 mph - N/A   Clear
5:15 PM 17.6 °F 9.3 °F 8.6 °F 68% 30.14 in 10.0 mi NW 5.8 mph - N/A   Clear
5:35 PM 17.6 °F 9.3 °F 10.4 °F 73% 30.14 in 10.0 mi WNW 5.8 mph - N/A   Clear
5:55 PM 17.6 °F 12.3 °F 10.4 °F 73% 30.13 in 10.0 mi WNW 3.5 mph - N/A   Clear
6:15 PM 17.6 °F 10.7 °F 10.4 °F 73% 30.14 in 10.0 mi WNW 4.6 mph - N/A   Clear
6:35 PM 17.6 °F 8.2 °F 10.4 °F 73% 30.14 in 10.0 mi WNW 6.9 mph - N/A   Clear
6:55 PM 17.6 °F 7.3 °F 10.4 °F 73% 30.14 in 10.0 mi WNW 8.1 mph - N/A   Clear
7:15 PM 17.6 °F 8.2 °F 10.4 °F 73% 30.14 in 10.0 mi WNW 6.9 mph - N/A   Clear
7:35 PM 17.6 °F 5.7 °F 10.4 °F 73% 30.15 in 10.0 mi WNW 10.4 mph - N/A   Clear
7:55 PM 15.8 °F 5.1 °F 10.4 °F 79% 30.14 in 7.0 mi WNW 8.1 mph - N/A   Clear
8:15 PM 15.8 °F 7.2 °F 8.6 °F 73% 30.15 in 7.0 mi WNW 5.8 mph - N/A   Clear
8:35 PM 15.8 °F 8.6 °F 8.6 °F 73% 30.16 in 7.0 mi WNW 4.6 mph - N/A   Clear
8:55 PM 14.0 °F 5.1 °F 8.6 °F 79% 30.16 in 7.0 mi WNW 5.8 mph - N/A   Clear
9:15 PM 14.0 °F 6.5 °F 8.6 °F 79% 30.15 in 7.0 mi WNW 4.6 mph - N/A   Clear
9:35 PM 12.2 °F 4.3 °F 6.8 °F 79% 30.16 in 10.0 mi NW 4.6 mph - N/A   Clear
9:55 PM 12.2 °F 4.3 °F 6.8 °F 79% 30.15 in 10.0 mi WNW 4.6 mph - N/A   Clear
10:15 PM 12.2 °F 6.1 °F 6.8 °F 79% 30.15 in 10.0 mi WNW 3.5 mph - N/A   Clear
10:35 PM 12.2 °F 2.9 °F 6.8 °F 79% 30.15 in 10.0 mi NW 5.8 mph - N/A   Clear
10:55 PM 12.2 °F 4.3 °F 6.8 °F 79% 30.14 in 7.0 mi NW 4.6 mph - N/A   Clear
11:15 PM 12.2 °F 6.1 °F 6.8 °F 79% 30.15 in 10.0 mi NW 3.5 mph - N/A   Clear
11:35 PM 12.2 °F 4.3 °F 6.8 °F 79% 30.14 in 10.0 mi WNW 4.6 mph - N/A   Clear
11:55 PM 12.2 °F - 6.8 °F 79% 30.14 in 10.0 mi Calm Calm - N/A   Clear